Weather History for KSHN - September, 2012

Change the Weather History Date:

Thursday, September 6, 2012

  Actual Average Record
Temperature  
Mean Temperature 66 °F -  
Max Temperature 87 °F 74 °F 93 °F (2014)
Min Temperature 46 °F 50 °F 39 °F (2005)
Cooling Degree Days 1    
Growing Degree Days 16 (Base 50)    
Moisture  
Dew Point 50 °F    
Average Humidity 73    
Maximum Humidity 100    
Minimum Humidity 26    
Precipitation  
Precipitation 0.00 in - - ()
Sea Level Pressure  
Sea Level Pressure 29.98 in    
Wind  
Wind Speed 2 mph (NNW)    
Max Wind Speed 9 mph    
Max Gust Speed -    
Visibility 7 miles    
Events Fog    
Averages and records for this station are not official NWS values.
T = Trace of Precipitation, MM = Missing Value Source: NWS Daily Summary

Daily Weather History Graph

Daily Weather History Graph

Search for Another Location

Airport or City:

Trip Planner

Search our weather history database for the weather conditions in past years. The results will help you decide how hot, cold, wet, or windy it might be!

Date:

Astronomy

Sep. 06, 2012 Rise Set
Actual Time 6:39 AM PDT 7:41 PM PDT
Civil Twilight 6:07 AM PDT 8:12 PM PDT
Nautical Twilight 5:30 AM PDT 8:49 PM PDT
Astronomical Twilight 4:50 AM PDT 9:29 PM PDT
Moon 10:27 PM PDT (9/6) 1:11 PM PDT (9/6)
Length of Visible Light 14h 04m
Length of Day
13h 02m
Waning Gibbous, 66% of the Moon is Illuminated
Sep 6
Waning Gibbous
Sep 8
Last Quarter
Sep 15
New
Sep 22
First Quarter
Sep 29
Full

Hourly Weather History & Observations

Time (PDT) Temp. Dew Point Humidity Pressure Visibility Wind Dir Wind Speed Gust Speed Precip Events Conditions
12:53 AM 54.0 °F 53.1 °F 97% 29.95 in 10.0 mi WSW 3.5 mph - N/A   Clear
1:20 AM 53.6 °F 53.6 °F 100% 29.95 in 9.0 mi Calm Calm - N/A   Scattered Clouds
1:29 AM 53.6 °F 53.6 °F 100% 29.95 in 8.0 mi Calm Calm - N/A   Mostly Cloudy
1:53 AM 53.1 °F 53.1 °F 100% 29.95 in 2.0 mi West 4.6 mph - N/A   Overcast
2:16 AM 53.6 °F 53.6 °F 100% 29.95 in 1.8 mi WSW 3.5 mph - N/A   Overcast
2:32 AM 53.6 °F 53.6 °F 100% 29.95 in 0.8 mi Calm Calm - N/A   Mist
2:53 AM 52.0 °F 52.0 °F 100% 29.96 in 0.5 mi Calm Calm - N/A Fog Fog
3:53 AM 51.1 °F 51.1 °F 100% 29.96 in 0.2 mi Calm Calm - N/A Fog Fog
4:53 AM 50.0 °F 50.0 °F 100% 29.96 in 0.8 mi Calm Calm - N/A   Mist
5:53 AM 48.0 °F 48.0 °F 100% 29.97 in 0.5 mi Calm Calm - N/A Fog Fog
6:18 AM 48.2 °F 48.2 °F 100% 29.97 in 2.5 mi Calm Calm - N/A   Clear
6:25 AM 48.2 °F 48.2 °F 100% 29.97 in 5.0 mi Calm Calm - N/A   Clear
6:53 AM 46.9 °F 46.9 °F 100% 29.98 in 10.0 mi Calm Calm - N/A   Clear
7:53 AM 50.0 °F 50.0 °F 100% 30.00 in 10.0 mi Calm Calm - N/A   Clear
8:53 AM 59.0 °F 54.0 °F 83% 30.01 in 10.0 mi ESE 3.5 mph - N/A   Clear
9:53 AM 64.9 °F 53.1 °F 65% 30.01 in 10.0 mi ENE 4.6 mph - N/A   Clear
10:53 AM 71.1 °F 53.1 °F 53% 30.02 in 10.0 mi Variable 3.5 mph - N/A   Clear
11:53 AM 73.9 °F 52.0 °F 46% 30.01 in 10.0 mi Variable 5.8 mph - N/A   Clear
12:53 PM 80.1 °F 50.0 °F 35% 30.00 in 10.0 mi Variable 5.8 mph - N/A   Clear
1:53 PM 82.0 °F 48.0 °F 30% 29.99 in 10.0 mi Variable 3.5 mph - N/A   Clear
2:53 PM 84.0 °F 46.9 °F 27% 29.98 in 10.0 mi Variable 4.6 mph - N/A   Clear
3:53 PM 86.0 °F 46.9 °F 26% 29.97 in 10.0 mi North 9.2 mph - N/A   Clear
4:53 PM 86.0 °F 46.9 °F 26% 29.97 in 10.0 mi North 8.1 mph - N/A   Clear
5:53 PM 82.9 °F 48.0 °F 29% 29.96 in 10.0 mi NNW 5.8 mph - N/A   Clear
6:53 PM 79.0 °F 50.0 °F 36% 29.97 in 10.0 mi NNW 6.9 mph - N/A   Clear
7:53 PM 72.0 °F 50.0 °F 46% 29.99 in 10.0 mi North 4.6 mph - N/A   Clear
8:53 PM 66.9 °F 51.1 °F 57% 30.01 in 10.0 mi North 3.5 mph - N/A   Clear
9:53 PM 59.0 °F 48.9 °F 69% 30.01 in 10.0 mi Calm Calm - N/A   Clear
10:53 PM 57.0 °F 48.9 °F 74% 30.02 in 10.0 mi Calm Calm - N/A   Clear
11:53 PM 55.9 °F 48.9 °F 77% 30.03 in 10.0 mi Calm Calm - N/A   Clear